Nantucket, MA

2:46 PM EST on November 24, 2017 (GMT -0500)
Nantucket Memorial

Weather History for KACK - August, 2013

Change the Weather History Date:

Sunday, August 11, 2013

  Actual Average Record
Temperature  
Mean Temperature 68 °F -  
Max Temperature 75 °F 75 °F 88 °F (1949)
Min Temperature 61 °F 63 °F 54 °F (1968)
Cooling Degree Days 3    
Growing Degree Days 18 (Base 50)    
Moisture  
Dew Point 56 °F    
Average Humidity 65    
Maximum Humidity 87    
Minimum Humidity 40    
Precipitation  
Precipitation 0.00 in - - ()
Sea Level Pressure  
Sea Level Pressure 30.05 in    
Wind  
Wind Speed 8 mph (West)    
Max Wind Speed 13 mph    
Max Gust Speed -    
Visibility 10 miles    
Events      
Averages and records for this station are not official NWS values.
T = Trace of Precipitation, MM = Missing Value Source: NWS Daily Summary

Daily Weather History Graph

Daily Weather History Graph

Search for Another Location

Airport or City:

Trip Planner

Search our weather history database for the weather conditions in past years. The results will help you decide how hot, cold, wet, or windy it might be!

Date:

Astronomy

Aug. 11, 2013 Rise Set
Actual Time 5:45 AM EDT 7:44 PM EDT
Civil Twilight 5:15 AM EDT 8:14 PM EDT
Nautical Twilight 4:38 AM EDT 8:50 PM EDT
Astronomical Twilight 3:59 AM EDT 9:30 PM EDT
Moon 10:33 AM EDT (8/11) 9:54 PM EDT (8/11)
Length of Visible Light 14h 58m
Length of Day
13h 58m
Waxing Crescent, 22% of the Moon is Illuminated
Aug 11
Waxing Crescent
Aug 14
First Quarter
Aug 20
Full
Aug 28
Last Quarter
Sep 5
New

Hourly Weather History & Observations

Time (EDT) Temp. Dew Point Humidity Pressure Visibility Wind Dir Wind Speed Gust Speed Precip Events Conditions
12:53 AM 70.0 °F 59.0 °F 68% 30.00 in 10.0 mi WNW 8.1 mph - N/A   Mostly Cloudy
1:53 AM 69.1 °F 55.9 °F 63% 30.00 in 10.0 mi NW 8.1 mph - N/A   Partly Cloudy
2:53 AM 66.9 °F 55.0 °F 66% 30.00 in 10.0 mi NNW 9.2 mph - N/A   Clear
3:53 AM 66.9 °F 55.9 °F 68% 30.01 in 10.0 mi NNW 9.2 mph - N/A   Clear
4:53 AM 63.0 °F 57.9 °F 84% 30.02 in 10.0 mi NNE 8.1 mph - N/A   Clear
5:53 AM 61.0 °F 57.0 °F 87% 30.04 in 10.0 mi NNE 8.1 mph - N/A   Clear
6:53 AM 64.9 °F 57.9 °F 78% 30.06 in 10.0 mi NNE 6.9 mph - N/A   Clear
7:53 AM 69.1 °F 55.9 °F 63% 30.06 in 10.0 mi NNE 8.1 mph - N/A   Clear
8:53 AM 72.0 °F 53.1 °F 51% 30.07 in 10.0 mi NNE 8.1 mph - N/A   Clear
9:53 AM 73.0 °F 50.0 °F 44% 30.07 in 10.0 mi Variable 5.8 mph - N/A   Clear
10:53 AM 73.9 °F 50.0 °F 43% 30.08 in 10.0 mi North 6.9 mph - N/A   Clear
11:53 AM 73.9 °F 48.0 °F 40% 30.07 in 10.0 mi NNW 5.8 mph - N/A   Clear
12:53 PM 73.9 °F 55.9 °F 53% 30.07 in 10.0 mi South 4.6 mph - N/A   Clear
1:53 PM 73.9 °F 54.0 °F 50% 30.06 in 10.0 mi SSE 8.1 mph - N/A   Clear
2:53 PM 75.0 °F 55.0 °F 50% 30.04 in 10.0 mi SW 11.5 mph - N/A   Partly Cloudy
3:53 PM 73.0 °F 54.0 °F 51% 30.05 in 10.0 mi WSW 10.4 mph - N/A   Clear
4:53 PM 71.1 °F 57.9 °F 63% 30.04 in 10.0 mi SW 12.7 mph - N/A   Clear
5:53 PM 70.0 °F 57.9 °F 65% 30.04 in 10.0 mi SW 12.7 mph - N/A   Clear
6:53 PM 68.0 °F 59.0 °F 73% 30.04 in 10.0 mi WSW 11.5 mph - N/A   Clear
7:53 PM 64.9 °F 57.9 °F 78% 30.05 in 10.0 mi WSW 8.1 mph - N/A   Clear
8:53 PM 64.9 °F 57.9 °F 78% 30.06 in 10.0 mi SW 6.9 mph - N/A   Clear
9:53 PM 66.0 °F 57.9 °F 75% 30.07 in 10.0 mi SW 9.2 mph - N/A   Clear
10:53 PM 66.0 °F 59.0 °F 78% 30.07 in 10.0 mi SSW 8.1 mph - N/A   Clear
11:53 PM 64.9 °F 60.1 °F 84% 30.07 in 10.0 mi SW 9.2 mph - N/A   Clear